This demonstration page uses our WeatherBlox Daily Observations layout. Learn more.

Left ArrowRight Arrow

39.95238, -75.16362

Hourly Observations for April 5, 2022

Temp ( °F °C ) Dew Point ( °F °C ) Humidity (%) Winds ( mph kmh ) Pressure ( in mb ) Visibility ( mi km ) Precip ( " mm )
12:54 am 00:54 Mostly Clear 45 7.2 35 1.7 68 68 SE 3 6 30.04 1017 10 16 0.00 0.00
1:54 am 01:54 Mostly Cloudy 43 6.1 33 0.6 68 68 Calm 30.04 1017 10 16 0.00 0.00
2:54 am 02:54 Cloudy 45 7.2 34 1.1 66 66 SW 3 6 30.05 1018 10 16 0.00 0.00
3:54 am 03:54 Cloudy 47 8.3 34 1.1 61 61 SW 5 7 30.05 1018 10 16 0.00 0.00
4:54 am 04:54 Cloudy 46 7.8 35 1.7 66 66 W 3 6 30.04 1017 10 16 0.00 0.00
5:54 am 05:54 Cloudy 48 8.9 34 1.1 58 58 SSW 3 6 30.04 1017 10 16 0.00 0.00
6:54 am 06:54 Cloudy 47 8.3 36 2.2 66 66 Calm 30.05 1018 10 16 0.00 0.00
7:54 am 07:54 Cloudy 48 8.9 37 2.8 66 66 ENE 6 9 30.05 1018 10 16 0.00 0.00
8:54 am 08:54 Cloudy 50 10 37 2.8 61 61 E 9 15 30.04 1017 10 16 0.00 0.00
9:54 am 09:54 Cloudy 52 11.1 38 3.3 59 59 E 6 9 30.02 1017 10 16 0.00 0.00
10:54 am 10:54 Cloudy 56 13.3 40 4.4 55 55 ESE 5 7 30.02 1017 10 16 0.00 0.00
11:54 am 11:54 Cloudy 58 14.4 40 4.4 51 51 SSE 10 17 30.01 1016 10 16 0.00 0.00
12:54 pm 12:54 Cloudy 59 15 43 6.1 56 56 SSW 9 15 30.01 1016 10 16 0.00 0.00
1:54 pm 13:54 Cloudy 57 13.9 43 6.1 60 60 S 7 11 30.00 1016 10 16 0.00 0.00
2:54 pm 14:54 Cloudy 57 13.9 42 5.6 58 58 SE 6 9 29.98 1015 10 16 0.00 0.00
3:54 pm 15:54 Cloudy 58 14.4 43 6.1 58 58 SE 9 15 29.97 1015 10 16 0.00 0.00
4:07 pm 16:07 Cloudy 58 14.4 43 6.1 58 58 SE 9 15 29.97 1015 10 16 0.00 0.00
4:37 pm 16:37 Cloudy 58 14.4 44 6.7 60 60 ESE 8 13 29.97 1015 10 16 0.00 0.00
4:54 pm 16:54 Cloudy 57 13.9 44 6.7 62 62 E 8 13 29.96 1014 10 16 0.00 0.00
5:51 pm 17:51 Cloudy 55 13 45 7 67 67 ESE 8 13 29.95 1014 10 16 0.00 0.00
5:54 pm 17:54 Cloudy 56 13.3 44 6.7 65 65 ESE 7 11 29.95 1014 10 16 0.00 0.00
6:28 pm 18:28 Cloudy 55 12.8 44 6.7 67 67 E 9 15 29.95 1014 10 16 0.00 0.00
6:54 pm 18:54 Cloudy 54 12.2 44 6.7 69 69 E 6 9 29.95 1014 10 16 0.00 0.00
7:21 pm 19:21 Cloudy 53 11.7 44 6.7 72 72 E 8 13 29.95 1014 10 16 0.00 0.00
7:54 pm 19:54 Cloudy with Light Rain 52 11.1 44 6.7 75 75 E 9 15 29.95 1014 10 16 0.00 0.00
8:54 pm 20:54 Cloudy with Light Rain 51 10.6 45 7.2 80 80 ENE 8 13 29.95 1014 10 16 0.00 0.00
9:45 pm 21:45 Cloudy with Light Rain 50 10 46 7.8 86 86 ENE 5 7 29.94 1014 7 11 0.00 0.00
9:54 pm 21:54 Cloudy with Light Rain 50 10 45 7.2 83 83 ENE 9 15 29.93 1013 7 11 0.00 0.00
10:17 pm 22:17 Cloudy with Light Rain 50 10 46 7.8 86 86 NE 9 15 29.91 1013 6 10 0.01 0.25
10:48 pm 22:48 Cloudy with Rain 50 10 46 8 88 88 NE 10 17 29.89 1012 5 8 0.05 1.27
10:54 pm 22:54 Cloudy with Light Rain 50 10 46 7.8 86 86 NE 12 19 29.88 1012 5 8 0.06 1.52
11:54 pm 23:54 Cloudy with Light Rain 49 9.4 46 7.8 90 90 NE 10 17 29.86 1011 5 8 0.01 0.25

Powered by AerisWeather